Вернуться в каталог

HEBI-4

АктивенНаукаSSO
NORAD 61870·PAYLOAD·🇨🇳 China
Это название спутника еще не подтверждено официальными источниками.

Запущен Nov 9, 2024 с Jiuquan Satellite Launch Center

Loading…

Ближайшие Пролёты (ближайшие 24 часа)

TLE

СвежийSource: Space-Track

Эпоха: Sep 14, 2026, 22:19 UTC

1 61870U 24203B   26257.93045484  .00013657  00000-0  43798-3 0  9998
2 61870  97.4091 328.2517 0010398  14.9589 345.1958 15.32406596102705

Отслеживайте HEBI-4 в реальном времени с AllMySat

Download on the App Store